TimePST,TemperatureF,Dew PointF,Humidity,Sea Level PressureIn,VisibilityMPH,Wind Direction,Wind SpeedMPH,Gust SpeedMPH,PrecipitationIn,Events,Conditions,WindDirDegrees,DateUTC
12:52 AM,30.0,12.0,47,30.13,-9999.0,NE,6.9,-,N/A,,Unknown,50,2013-01-06 08:52:00
1:52 AM,28.0,15.1,58,30.13,-9999.0,ENE,3.5,-,N/A,,Unknown,60,2013-01-06 09:52:00
2:52 AM,30.0,16.0,56,30.11,-9999.0,Calm,Calm,-,N/A,,Unknown,0,2013-01-06 10:52:00
3:52 AM,28.0,16.0,61,30.11,-9999.0,NE,5.8,-,N/A,,Unknown,50,2013-01-06 11:52:00
4:52 AM,28.0,15.1,58,30.11,-9999.0,ENE,5.8,-,N/A,,Unknown,70,2013-01-06 12:52:00
5:52 AM,28.9,16.0,58,30.12,-9999.0,Calm,Calm,-,N/A,,Unknown,0,2013-01-06 13:52:00
6:52 AM,30.0,19.9,66,30.14,-9999.0,Calm,Calm,-,N/A,,Unknown,0,2013-01-06 14:52:00
7:52 AM,34.0,21.0,59,30.14,-9999.0,Calm,Calm,-,N/A,,Unknown,0,2013-01-06 15:52:00
8:52 AM,41.0,27.0,57,30.13,-9999.0,SSW,4.6,-,N/A,,Unknown,200,2013-01-06 16:52:00
9:52 AM,44.1,34.0,68,30.12,-9999.0,SW,11.5,-,N/A,,Unknown,220,2013-01-06 17:52:00
10:52 AM,46.9,35.1,63,30.09,-9999.0,West,12.7,-,N/A,,Unknown,270,2013-01-06 18:52:00
11:52 AM,48.9,32.0,52,30.06,-9999.0,West,10.4,21.9,N/A,,Unknown,280,2013-01-06 19:52:00
12:52 PM,48.0,33.1,56,30.04,-9999.0,West,15.0,-,N/A,,Unknown,280,2013-01-06 20:52:00
1:52 PM,46.0,35.1,66,30.03,-9999.0,West,12.7,-,N/A,,Unknown,280,2013-01-06 21:52:00
2:52 PM,46.0,34.0,63,30.02,-9999.0,West,16.1,-,N/A,,Unknown,260,2013-01-06 22:52:00
3:52 PM,46.0,35.1,66,30.03,-9999.0,West,12.7,19.6,N/A,,Unknown,270,2013-01-06 23:52:00
4:52 PM,43.0,36.0,76,30.03,-9999.0,West,6.9,-,0.01,,Unknown,270,2013-01-07 00:52:00
5:52 PM,39.9,34.0,79,30.03,-9999.0,WSW,6.9,-,N/A,,Unknown,240,2013-01-07 01:52:00
6:52 PM,39.0,35.1,86,30.01,-9999.0,SW,5.8,-,N/A,,Unknown,220,2013-01-07 02:52:00
7:52 PM,41.0,36.0,82,30.00,-9999.0,SSW,8.1,-,N/A,,Unknown,200,2013-01-07 03:52:00
8:52 PM,39.9,37.0,89,29.98,-9999.0,WSW,6.9,-,0.01,,Unknown,240,2013-01-07 04:52:00
9:52 PM,39.9,37.9,93,29.96,-9999.0,SW,8.1,-,0.03,,Unknown,220,2013-01-07 05:52:00
10:52 PM,41.0,37.9,89,29.94,-9999.0,SW,11.5,-,0.04,,Unknown,220,2013-01-07 06:52:00
11:52 PM,41.0,39.0,93,29.91,-9999.0,SSW,9.2,-,0.03,,Unknown,200,2013-01-07 07:52:00